Вернуться в каталог

STARLINK-37178

АктивенСвязьVLEO
NORAD 68526·PAYLOAD·🇺🇸 United States

Запущен Mar 30, 2026 с Cape Canaveral Space Force Station

Loading…

Ближайшие Пролёты (ближайшие 24 часа)

TLE

СвежийSource: CelesTrak SupGP

Эпоха: Sep 14, 2026, 22:39 UTC

1 68526C 26068U   26257.94423611  .00022334  00000+0  66008-3 0  2574
2 68526  53.1570 320.0221 0001218  93.5575 271.0949 15.34369167    14

Отслеживайте STARLINK-37178 в реальном времени с AllMySat

Download on the App Store